Powrót do katalogu

ONEWEB-0590

AktywnyŁącznośćPO
NORAD 54656·PAYLOAD·🇬🇧 United Kingdom

Wystrzelony Dec 8, 2022 z Cape Canaveral Space Force Station

Loading…

Następne Przeloty (najbliższe 24 godziny)

TLE

ŚwieżeSource: CelesTrak SupGP

Epoka: Sep 14, 2026, 20:26 UTC

1 54656C 22166Q   26257.85154352  .00002596  00000+0  62941-2 0  2570
2 54656  87.9279 226.1278 0001797  92.8924 291.4017 13.21820941    12

Śledź ONEWEB-0590 w czasie rzeczywistym z AllMySat

Download on the App Store